When you browse on this site, cookies collect data to enhance your experience and personalize the content and advertising you see.
Visit our Privacy Policy to learn more. By continuing to use the site, you agree to this use of cookies and data.
  • In Hungary
  • List of Countries
  • For 7 days
  • Water Temperature
  • Weather Map
  • News
  • Weather Widgets
  • user-avatar
    Login

    Hourly Weather Landau in der Pfalz

    Today, 5 April, Sunday

    Time Temperature Precipitation Wind Pressure Humidity
    00:00 +7°C° 0 mm 2 mps 753 mmHg 75%
    01:00 +7°C° 0 mm 2 mps 753 mmHg 76%
    02:00 +6°C° 0 mm 2 mps 753 mmHg 77%
    03:00 +6°C° 0 mm 2 mps 752 mmHg 78%
    04:00 +5°C° 0 mm 2 mps 752 mmHg 78%
    05:00 +6°C° 0 mm 2 mps 753 mmHg 78%
    06:00 +6°C° 0 mm 2 mps 753 mmHg 78%
    07:00 +6°C° 0 mm 2 mps 753 mmHg 77%
    08:00 +8°C° 0 mm 2 mps 753 mmHg 71%
    09:00 +10°C° 0 mm 3 mps 753 mmHg 64%
    10:00 +12°C° 0 mm 3 mps 752 mmHg 58%
    11:00 +13°C° 0 mm 3 mps 752 mmHg 53%
    12:00 +16°C° 0 mm 3 mps 752 mmHg 49%
    13:00 +18°C° 0 mm 3 mps 751 mmHg 45%
    14:00 +18°C° 0 mm 3 mps 751 mmHg 44%
    15:00 +18°C° 0 mm 3 mps 750 mmHg 43%
    16:00 +19°C° 0 mm 3 mps 750 mmHg 42%
    17:00 +17°C° 0 mm 2 mps 750 mmHg 48%
    18:00 +15°C° 0 mm 2 mps 750 mmHg 55%
    19:00 +14°C° 0 mm 2 mps 750 mmHg 62%
    20:00 +13°C° 0 mm 2 mps 750 mmHg 66%
    21:00 +12°C° 0 mm 2 mps 750 mmHg 69%
    22:00 +10°C° 0 mm 2 mps 750 mmHg 73%
    23:00 +10°C° 0 mm 1 mps 750 mmHg 75%

    Tomorrow, 6 April, Monday

    Time Temperature Precipitation Wind Pressure Humidity
    00:00 +10°C° 0 mm 1 mps 750 mmHg 77%
    01:00 +8°C° 0 mm 0 mps 750 mmHg 79%
    02:00 +8°C° 0 mm 0 mps 750 mmHg 81%
    03:00 +9°C° 0 mm 1 mps 751 mmHg 82%
    04:00 +8°C° 0 mm 1 mps 751 mmHg 84%
    05:00 +9°C° 0 mm 1 mps 751 mmHg 83%
    06:00 +9°C° 0 mm 1 mps 751 mmHg 82%
    07:00 +9°C° 0 mm 1 mps 751 mmHg 81%
    08:00 +12°C° 0 mm 1 mps 752 mmHg 72%
    09:00 +14°C° 0 mm 1 mps 752 mmHg 63%
    10:00 +16°C° 0 mm 1 mps 752 mmHg 54%
    11:00 +19°C° 0 mm 1 mps 752 mmHg 50%
    12:00 +20°C° 0 mm 1 mps 752 mmHg 46%
    13:00 +22°C° 0 mm 1 mps 752 mmHg 42%
    14:00 +22°C° 0 mm 1 mps 752 mmHg 41%
    15:00 +22°C° 0 mm 1 mps 752 mmHg 41%
    16:00 +21°C° 0 mm 2 mps 752 mmHg 40%
    17:00 +20°C° 0 mm 1 mps 752 mmHg 46%
    18:00 +18°C° 0 mm 1 mps 752 mmHg 53%
    19:00 +16°C° 0 mm 1 mps 752 mmHg 59%
    20:00 +15°C° 0 mm 1 mps 753 mmHg 63%
    21:00 +14°C° 0 mm 1 mps 754 mmHg 67%
    22:00 +13°C° 0 mm 1 mps 754 mmHg 70%
    23:00 +13°C° 0 mm 1 mps 755 mmHg 73%

    Day after tomorrow, 7 April, Tuesday

    Time Temperature Precipitation Wind Pressure Humidity
    00:00 +12°C° 0 mm 1 mps 755 mmHg 76%
    01:00 +11°C° 0 mm 0 mps 755 mmHg 78%
    02:00 +10°C° 0 mm 0 mps 755 mmHg 79%
    03:00 +10°C° 0 mm 0 mps 755 mmHg 80%
    04:00 +10°C° 0 mm 0 mps 756 mmHg 81%
    05:00 +10°C° 0 mm 0 mps 756 mmHg 80%
    06:00 +10°C° 0 mm 0 mps 756 mmHg 79%
    07:00 +10°C° 0 mm 0 mps 756 mmHg 78%
    08:00 +13°C° 0 mm 1 mps 757 mmHg 71%
    09:00 +16°C° 0 mm 1 mps 757 mmHg 64%
    10:00 +18°C° 0 mm 2 mps 757 mmHg 57%
    11:00 +19°C° 0 mm 2 mps 757 mmHg 52%
    12:00 +20°C° 0 mm 2 mps 757 mmHg 46%
    13:00 +21°C° 0 mm 3 mps 756 mmHg 41%
    14:00 +21°C° 0 mm 3 mps 756 mmHg 40%
    15:00 +22°C° 0 mm 3 mps 756 mmHg 39%
    16:00 +22°C° 0 mm 3 mps 756 mmHg 37%
    17:00 +20°C° 0 mm 3 mps 755 mmHg 43%
    18:00 +18°C° 0 mm 2 mps 755 mmHg 49%
    19:00 +17°C° 0 mm 2 mps 755 mmHg 55%
    20:00 +16°C° 0 mm 2 mps 756 mmHg 57%
    21:00 +15°C° 0 mm 2 mps 756 mmHg 58%
    22:00 +14°C° 0 mm 1 mps 756 mmHg 60%
    23:00 +13°C° 0 mm 1 mps 756 mmHg 64%

    8 April, Wednesday

    Time Temperature Precipitation Wind Pressure Humidity
    00:00 +13°C° 0 mm 2 mps 756 mmHg 67%
    01:00 +12°C° 0 mm 2 mps 756 mmHg 71%
    02:00 +12°C° 0 mm 2 mps 756 mmHg 72%
    03:00 +10°C° 0 mm 2 mps 756 mmHg 74%
    04:00 +10°C° 0 mm 2 mps 756 mmHg 76%
    05:00 +10°C° 0 mm 2 mps 756 mmHg 76%
    06:00 +10°C° 0 mm 2 mps 756 mmHg 76%
    07:00 +10°C° 0 mm 2 mps 756 mmHg 76%
    08:00 +13°C° 0 mm 2 mps 756 mmHg 68%
    09:00 +15°C° 0 mm 2 mps 755 mmHg 61%
    10:00 +17°C° 0 mm 2 mps 755 mmHg 53%
    11:00 +18°C° 0 mm 2 mps 755 mmHg 48%
    12:00 +19°C° 0 mm 2 mps 755 mmHg 43%
    13:00 +20°C° 0 mm 3 mps 755 mmHg 38%
    14:00 +21°C° 0 mm 3 mps 754 mmHg 37%
    15:00 +21°C° 0 mm 2 mps 754 mmHg 36%
    16:00 +21°C° 0 mm 2 mps 753 mmHg 36%
    17:00 +19°C° 0 mm 2 mps 753 mmHg 42%
    18:00 +18°C° 0 mm 1 mps 753 mmHg 48%
    19:00 +16°C° 0 mm 1 mps 753 mmHg 55%
    20:00 +15°C° 0 mm 1 mps 753 mmHg 55%
    21:00 +15°C° 0 mm 1 mps 754 mmHg 56%
    22:00 +13°C° 0 mm 0 mps 754 mmHg 57%
    23:00 +14°C° 0 mm 1 mps 754 mmHg 58%

    9 April, Thursday

    Time Temperature Precipitation Wind Pressure Humidity
    00:00 +14°C° 0 mm 1 mps 754 mmHg 59%
    01:00 +13°C° 0 mm 1 mps 754 mmHg 61%
    02:00 +13°C° 0 mm 1 mps 754 mmHg 62%
    03:00 +12°C° 0 mm 0 mps 754 mmHg 64%
    04:00 +11°C° 0 mm 0 mps 754 mmHg 65%
    05:00 +13°C° 0 mm 1 mps 754 mmHg 66%
    06:00 +13°C° 0 mm 1 mps 754 mmHg 67%
    07:00 +13°C° 0 mm 1 mps 755 mmHg 69%
    08:00 +15°C° 0 mm 1 mps 755 mmHg 65%
    09:00 +16°C° 0 mm 1 mps 755 mmHg 62%
    10:00 +17°C° 0 mm 2 mps 755 mmHg 59%
    11:00 +19°C° 0 mm 2 mps 755 mmHg 55%
    12:00 +20°C° 0 mm 2 mps 754 mmHg 52%
    13:00 +21°C° 0 mm 3 mps 754 mmHg 48%
    14:00 +21°C° 0 mm 3 mps 754 mmHg 48%
    15:00 +21°C° 0 mm 3 mps 754 mmHg 48%
    16:00 +21°C° 0 mm 3 mps 754 mmHg 47%
    17:00 +19°C° 0 mm 3 mps 754 mmHg 52%
    18:00 +18°C° 0 mm 3 mps 754 mmHg 57%
    19:00 +16°C° 0 mm 3 mps 754 mmHg 62%
    20:00 +14°C° 0 mm 3 mps 754 mmHg 63%
    21:00 +13°C° 0 mm 3 mps 755 mmHg 63%
    22:00 +12°C° 0 mm 3 mps 755 mmHg 63%
    23:00 +11°C° 0 mm 3 mps 755 mmHg 65%

    10 April, Friday

    Time Temperature Precipitation Wind Pressure Humidity
    00:00 +10°C° 0 mm 3 mps 756 mmHg 68%
    01:00 +10°C° 0 mm 3 mps 756 mmHg 70%
    02:00 +9°C° 0 mm 3 mps 756 mmHg 71%
    03:00 +8°C° 0 mm 3 mps 755 mmHg 72%
    04:00 +8°C° 0 mm 3 mps 755 mmHg 72%
    05:00 +8°C° 0 mm 3 mps 755 mmHg 72%
    06:00 +8°C° 0 mm 3 mps 756 mmHg 71%
    07:00 +8°C° 0 mm 3 mps 756 mmHg 70%
    08:00 +9°C° 0 mm 3 mps 756 mmHg 65%
    09:00 +11°C° 0 mm 3 mps 755 mmHg 61%
    10:00 +13°C° 0 mm 3 mps 755 mmHg 56%
    11:00 +14°C° 0 mm 4 mps 755 mmHg 51%
    12:00 +15°C° 0 mm 4 mps 755 mmHg 46%
    13:00 +18°C° 0 mm 4 mps 754 mmHg 41%
    14:00 +18°C° 0 mm 3 mps 754 mmHg 40%
    15:00 +19°C° 0 mm 3 mps 754 mmHg 38%
    16:00 +19°C° 0 mm 3 mps 753 mmHg 37%
    17:00 +17°C° 0 mm 3 mps 753 mmHg 43%
    18:00 +16°C° 0 mm 3 mps 753 mmHg 49%
    19:00 +14°C° 0 mm 2 mps 753 mmHg 55%
    20:00 +13°C° 0 mm 2 mps 753 mmHg 57%
    21:00 +12°C° 0 mm 2 mps 753 mmHg 59%
    22:00 +10°C° 0 mm 2 mps 753 mmHg 60%
    23:00 +10°C° 0 mm 2 mps 753 mmHg 63%
    Show more